Weather in Igalo

Montenegro     42°27′25″N   18°30′36″E
temp.,
°C
wind,
m/s
gust,
m/s
humid.,
%
clouds,
%
prec.,
mm/h
press.,
hPa
HPBL,
m
18 may, tue
tue1823:00+14nnw338255 0.9 101138
02:00+13n337523 1.1 101135
05:00+12nne22680 0.0 101136
08:00+15nw12580 0.0 1013241
11:00+17w44530 0.0 10141075
14:00+18w44572 0.0 10141135
17:00+17w245714 0.0 1015626
20:00+14nne116413 0.0 101511
19 may, wed
wed1923:00+13ene326083 0.0 101664
02:00+12e3372100 0.0 1016103
05:00+12ene44619 0.0 1014101
08:00+15se3555100 0.0 1013326
11:00+16sse5658100 0.0 1014817
14:00+16sse556785 0.0 1013733
17:00+15s447484 0.0 1012513
20:00+13s228679 0.1 1013312
20 may, thu
thu2023:00+13sse2286100 0.5 1013224
02:00+12wnw459063 1.8 1013401
05:00+12wnw228661 0.3 1012292
08:00+12ese228062 0.6 1013358
11:00+14wsw117435 1.1 1013572
14:00+15wsw246234 2.3 10131083
17:00+16nnw356126 0.8 10131018
20:00+12nne45692 0.9 1015118
21 may, fri
fri2123:00+11nne4466100 0.0 1018114
02:00+11nne346598 0.0 1018139
05:00+9nne447511 0.0 1019126
08:00+13n24540 0.0 1019596
11:00+17wnw24461 0.0 10191040
14:00+18wnw34493 0.0 10181134
17:00+18wnw65553 0.0 1018981
20:00+15nnw45715 0.0 1018121
22 may, sat
sat2223:00+14ne22665 0.0 101831
02:00+13ene33630 0.0 101793
05:00+12ene337037 0.0 1017108
08:00+15se2267100 0.0 1017279
11:00+16s326494 0.0 1018563
14:00+16sse33680 0.0 1017570
17:00+17sse336124 0.0 1017375
20:00+15ene346775 0.0 101760